Year,Month,Day,Hour,Minute,Value (Times are PST for temperature in C)
2008,10,10,00,00,4.60
2008,10,10,00,01,4.50
2008,10,10,00,02,4.50
2008,10,10,00,03,4.50
2008,10,10,00,04,4.50
2008,10,10,00,05,4.40
2008,10,10,00,06,4.40
2008,10,10,00,07,4.40
2008,10,10,00,08,4.40
2008,10,10,00,09,4.40
2008,10,10,00,10,4.40
2008,10,10,00,11,4.30
2008,10,10,00,12,4.30
2008,10,10,00,13,4.30
2008,10,10,00,14,4.30
2008,10,10,00,15,4.30
2008,10,10,00,16,4.30
2008,10,10,00,17,4.20
2008,10,10,00,18,4.20
2008,10,10,00,19,4.20
2008,10,10,00,20,4.20
2008,10,10,00,21,4.20
2008,10,10,00,22,4.20
2008,10,10,00,23,4.10
2008,10,10,00,24,4.10
2008,10,10,00,25,4.10
2008,10,10,00,26,4.10
2008,10,10,00,27,4.10
2008,10,10,00,28,4.10
2008,10,10,00,29,4.10
2008,10,10,00,30,4.10
2008,10,10,00,31,4.10
2008,10,10,00,32,4.10
2008,10,10,00,33,4.10
2008,10,10,00,34,4.10
2008,10,10,00,35,4.10
2008,10,10,00,36,4.00
2008,10,10,00,37,4.00
2008,10,10,00,38,4.00
2008,10,10,00,39,4.00
2008,10,10,00,40,4.00
2008,10,10,00,41,3.90
2008,10,10,00,42,3.90
2008,10,10,00,43,3.90
2008,10,10,00,44,3.90
2008,10,10,00,45,3.90
2008,10,10,00,46,3.90
2008,10,10,00,47,3.90
2008,10,10,00,48,3.90
2008,10,10,00,49,3.90
2008,10,10,00,50,3.90
2008,10,10,00,51,3.90
2008,10,10,00,52,3.90
2008,10,10,00,53,3.80
2008,10,10,00,54,3.80
2008,10,10,00,55,3.80
2008,10,10,00,56,3.80
2008,10,10,00,57,3.80
2008,10,10,00,58,3.80
2008,10,10,00,59,3.80
2008,10,10,01,00,3.80
2008,10,10,01,01,3.80
2008,10,10,01,02,3.80
2008,10,10,01,03,3.80
2008,10,10,01,04,3.70
2008,10,10,01,05,3.70
2008,10,10,01,06,3.70
2008,10,10,01,07,3.70
2008,10,10,01,08,3.70
2008,10,10,01,09,3.70
2008,10,10,01,10,3.60
2008,10,10,01,11,3.60
2008,10,10,01,12,3.60
2008,10,10,01,13,3.60
2008,10,10,01,14,3.50
2008,10,10,01,15,3.50
2008,10,10,01,16,3.50
2008,10,10,01,17,3.50
2008,10,10,01,18,3.50
2008,10,10,01,19,3.50
2008,10,10,01,20,3.50
2008,10,10,01,21,3.50
2008,10,10,01,22,3.50
2008,10,10,01,23,3.50
2008,10,10,01,24,3.50
2008,10,10,01,25,3.50
2008,10,10,01,26,3.50
2008,10,10,01,27,3.50
2008,10,10,01,28,3.40
2008,10,10,01,29,3.40
2008,10,10,01,30,3.40
2008,10,10,01,31,3.40
2008,10,10,01,32,3.40
2008,10,10,01,33,3.40
2008,10,10,01,34,3.40
2008,10,10,01,35,3.40
2008,10,10,01,36,3.40
2008,10,10,01,37,3.40
2008,10,10,01,38,3.40
2008,10,10,01,39,3.40
2008,10,10,01,40,3.40
2008,10,10,01,41,3.30
2008,10,10,01,42,3.30
2008,10,10,01,43,3.30
2008,10,10,01,44,3.30
2008,10,10,01,45,3.30
2008,10,10,01,46,3.30
2008,10,10,01,47,3.30
2008,10,10,01,48,3.30
2008,10,10,01,49,3.30
2008,10,10,01,50,3.30
2008,10,10,01,51,3.30
2008,10,10,01,52,3.30
2008,10,10,01,53,3.30
2008,10,10,01,54,3.30
2008,10,10,01,55,3.30
2008,10,10,01,56,3.30
2008,10,10,01,57,3.30
2008,10,10,01,58,3.20
2008,10,10,01,59,3.20
2008,10,10,02,00,3.20
2008,10,10,02,01,3.20
2008,10,10,02,02,3.20
2008,10,10,02,03,3.20
2008,10,10,02,04,3.10
2008,10,10,02,05,3.10
2008,10,10,02,06,3.10
2008,10,10,02,07,3.10
2008,10,10,02,08,3.10
2008,10,10,02,09,3.10
2008,10,10,02,10,3.10
2008,10,10,02,11,3.20
2008,10,10,02,12,3.20
2008,10,10,02,13,3.20
2008,10,10,02,14,3.10
2008,10,10,02,15,3.10
2008,10,10,02,16,3.10
2008,10,10,02,17,3.10
2008,10,10,02,18,3.10
2008,10,10,02,19,3.10
2008,10,10,02,20,3.10
2008,10,10,02,21,3.10
2008,10,10,02,22,3.10
2008,10,10,02,23,3.10
2008,10,10,02,24,3.10
2008,10,10,02,25,3.10
2008,10,10,02,26,3.10
2008,10,10,02,27,3.10
2008,10,10,02,28,3.10
2008,10,10,02,29,3.10
2008,10,10,02,30,3.10
2008,10,10,02,31,3.10
2008,10,10,02,32,3.10
2008,10,10,02,33,3.10
2008,10,10,02,34,3.00
2008,10,10,02,35,3.00
2008,10,10,02,36,3.00
2008,10,10,02,37,3.00
2008,10,10,02,38,3.00
2008,10,10,02,39,2.90
2008,10,10,02,40,2.90
2008,10,10,02,41,2.90
2008,10,10,02,42,2.90
2008,10,10,02,43,2.90
2008,10,10,02,44,2.90
2008,10,10,02,45,2.90
2008,10,10,02,46,2.90
2008,10,10,02,47,2.80
2008,10,10,02,48,2.80
2008,10,10,02,49,2.80
2008,10,10,02,50,2.80
2008,10,10,02,51,2.80
2008,10,10,02,52,2.80
2008,10,10,02,53,2.80
2008,10,10,02,54,2.80
2008,10,10,02,55,2.80
2008,10,10,02,56,2.80
2008,10,10,02,57,2.80
2008,10,10,02,58,2.80
2008,10,10,02,59,2.80
2008,10,10,03,00,2.80
2008,10,10,03,01,2.80
2008,10,10,03,02,2.80
2008,10,10,03,03,2.80
2008,10,10,03,04,2.80
2008,10,10,03,05,2.80
2008,10,10,03,06,2.80
2008,10,10,03,07,2.80
2008,10,10,03,08,2.80
2008,10,10,03,09,2.70
2008,10,10,03,10,2.70
2008,10,10,03,11,2.70
2008,10,10,03,12,2.70
2008,10,10,03,13,2.70
2008,10,10,03,14,2.70
2008,10,10,03,15,2.80
2008,10,10,03,16,2.70
2008,10,10,03,17,2.80
2008,10,10,03,18,2.80
2008,10,10,03,19,2.80
2008,10,10,03,20,2.80
2008,10,10,03,21,2.70
2008,10,10,03,22,2.70
2008,10,10,03,23,2.70
2008,10,10,03,24,2.70
2008,10,10,03,25,2.70
2008,10,10,03,26,2.70
2008,10,10,03,27,2.70
2008,10,10,03,28,2.70
2008,10,10,03,29,2.70
2008,10,10,03,30,2.70
2008,10,10,03,31,2.60
2008,10,10,03,32,2.60
2008,10,10,03,33,2.60
2008,10,10,03,34,2.60
2008,10,10,03,35,2.60
2008,10,10,03,36,2.60
2008,10,10,03,37,2.60
2008,10,10,03,38,2.60
2008,10,10,03,39,2.60
2008,10,10,03,40,2.60
2008,10,10,03,41,2.60
2008,10,10,03,42,2.60
2008,10,10,03,43,2.50
2008,10,10,03,44,2.50
2008,10,10,03,45,2.50
2008,10,10,03,46,2.50
2008,10,10,03,47,2.50
2008,10,10,03,48,2.50
2008,10,10,03,49,2.50
2008,10,10,03,50,2.50
2008,10,10,03,51,2.50
2008,10,10,03,52,2.50
2008,10,10,03,53,2.50
2008,10,10,03,54,2.50
2008,10,10,03,55,2.60
2008,10,10,03,56,2.60
2008,10,10,03,57,2.60
2008,10,10,03,58,2.60
2008,10,10,03,59,2.60
2008,10,10,04,00,2.60
2008,10,10,04,01,2.60
2008,10,10,04,02,2.50
2008,10,10,04,03,2.50
2008,10,10,04,04,2.50
2008,10,10,04,05,2.40
2008,10,10,04,06,2.40
2008,10,10,04,07,2.50
2008,10,10,04,08,2.50
2008,10,10,04,09,2.50
2008,10,10,04,10,2.50
2008,10,10,04,11,2.50
2008,10,10,04,12,2.50
2008,10,10,04,13,2.50
2008,10,10,04,14,2.60
2008,10,10,04,15,2.60
2008,10,10,04,16,2.60
2008,10,10,04,17,2.60
2008,10,10,04,18,2.60
2008,10,10,04,19,2.60
2008,10,10,04,20,2.60
2008,10,10,04,21,2.60
2008,10,10,04,22,2.50
2008,10,10,04,23,2.50
2008,10,10,04,24,2.50
2008,10,10,04,25,2.40
2008,10,10,04,26,2.40
2008,10,10,04,27,2.40
2008,10,10,04,28,2.40
2008,10,10,04,29,2.40
2008,10,10,04,30,2.40
2008,10,10,04,31,2.40
2008,10,10,04,32,2.30
2008,10,10,04,33,2.30
2008,10,10,04,34,2.30
2008,10,10,04,35,2.30
2008,10,10,04,36,2.30
2008,10,10,04,37,2.30
2008,10,10,04,38,2.30
2008,10,10,04,39,2.30
2008,10,10,04,40,2.30
2008,10,10,04,41,2.30
2008,10,10,04,42,2.30
2008,10,10,04,43,2.30
2008,10,10,04,44,2.30
2008,10,10,04,45,2.20
2008,10,10,04,46,2.20
2008,10,10,04,47,2.20
2008,10,10,04,48,2.20
2008,10,10,04,49,2.20
2008,10,10,04,50,2.20
2008,10,10,04,51,2.20
2008,10,10,04,52,2.20
2008,10,10,04,53,2.10
2008,10,10,04,54,2.10
2008,10,10,04,55,2.10
2008,10,10,04,56,2.20
2008,10,10,04,57,2.20
2008,10,10,04,58,2.20
2008,10,10,04,59,2.20
2008,10,10,05,00,2.20
2008,10,10,05,01,2.20
2008,10,10,05,02,2.20
2008,10,10,05,03,2.20
2008,10,10,05,04,2.20
2008,10,10,05,05,2.20
2008,10,10,05,06,2.20
2008,10,10,05,07,2.20
2008,10,10,05,08,2.10
2008,10,10,05,09,2.10
2008,10,10,05,10,2.10
2008,10,10,05,11,2.10
2008,10,10,05,12,2.10
2008,10,10,05,13,2.10
2008,10,10,05,14,2.10
2008,10,10,05,15,2.10
2008,10,10,05,16,2.10
2008,10,10,05,17,2.10
2008,10,10,05,18,2.10
2008,10,10,05,19,2.10
2008,10,10,05,20,2.10
2008,10,10,05,21,2.00
2008,10,10,05,22,2.00
2008,10,10,05,23,2.00
2008,10,10,05,24,1.90
2008,10,10,05,25,1.90
2008,10,10,05,26,1.90
2008,10,10,05,27,1.90
2008,10,10,05,28,1.90
2008,10,10,05,29,1.90
2008,10,10,05,30,1.90
2008,10,10,05,31,1.90
2008,10,10,05,32,1.90
2008,10,10,05,33,1.90
2008,10,10,05,34,1.90
2008,10,10,05,35,1.90
2008,10,10,05,36,2.00
2008,10,10,05,37,1.90
2008,10,10,05,38,2.00
2008,10,10,05,39,2.00
2008,10,10,05,40,2.00
2008,10,10,05,41,2.00
2008,10,10,05,42,2.00
2008,10,10,05,43,2.00
2008,10,10,05,44,2.00
2008,10,10,05,45,2.00
2008,10,10,05,46,2.00
2008,10,10,05,47,2.00
2008,10,10,05,48,2.00
2008,10,10,05,49,2.00
2008,10,10,05,50,2.00
2008,10,10,05,51,2.00
2008,10,10,05,52,1.90
2008,10,10,05,53,1.90
2008,10,10,05,54,1.90
2008,10,10,05,55,1.90
2008,10,10,05,56,1.90
2008,10,10,05,57,1.90
2008,10,10,05,58,2.00
2008,10,10,05,59,2.00
2008,10,10,06,00,2.00
2008,10,10,06,01,2.00
2008,10,10,06,02,2.00
2008,10,10,06,03,2.10
2008,10,10,06,04,2.10
2008,10,10,06,05,2.10
2008,10,10,06,06,2.10
2008,10,10,06,07,2.10
2008,10,10,06,08,2.10
2008,10,10,06,09,2.00
2008,10,10,06,10,2.00
2008,10,10,06,11,1.90
2008,10,10,06,12,1.90
2008,10,10,06,13,1.90
2008,10,10,06,14,1.90
2008,10,10,06,15,1.90
2008,10,10,06,16,1.90
2008,10,10,06,17,1.90
2008,10,10,06,18,1.90
2008,10,10,06,19,2.00
2008,10,10,06,20,1.90
2008,10,10,06,21,1.90
2008,10,10,06,22,1.90
2008,10,10,06,23,1.90
2008,10,10,06,24,1.90
2008,10,10,06,25,1.90
2008,10,10,06,26,1.90
2008,10,10,06,27,1.80
2008,10,10,06,28,1.80
2008,10,10,06,29,1.80
2008,10,10,06,30,1.80
2008,10,10,06,31,1.80
2008,10,10,06,32,1.80
2008,10,10,06,33,1.80
2008,10,10,06,34,1.80
2008,10,10,06,35,1.80
2008,10,10,06,36,1.80
2008,10,10,06,37,1.80
2008,10,10,06,38,1.80
2008,10,10,06,39,1.80
2008,10,10,06,40,1.80
2008,10,10,06,41,1.80
2008,10,10,06,42,1.80
2008,10,10,06,43,1.80
2008,10,10,06,44,1.70
2008,10,10,06,45,1.70
2008,10,10,06,46,1.70
2008,10,10,06,47,1.70
2008,10,10,06,48,1.60
2008,10,10,06,49,1.60
2008,10,10,06,50,1.60
2008,10,10,06,51,1.60
2008,10,10,06,52,1.60
2008,10,10,06,53,1.60
2008,10,10,06,54,1.60
2008,10,10,06,55,1.70
2008,10,10,06,56,1.70
2008,10,10,06,57,1.70
2008,10,10,06,58,1.70
2008,10,10,06,59,1.70
2008,10,10,07,00,1.70
2008,10,10,07,01,1.70
2008,10,10,07,02,1.70
2008,10,10,07,03,1.70
2008,10,10,07,04,1.70
2008,10,10,07,05,1.70
2008,10,10,07,06,1.70
2008,10,10,07,07,1.70
2008,10,10,07,08,1.70
2008,10,10,07,09,1.70
2008,10,10,07,10,1.70
2008,10,10,07,11,1.70
2008,10,10,07,12,1.70
2008,10,10,07,13,1.60
2008,10,10,07,14,1.60
2008,10,10,07,15,1.60
2008,10,10,07,16,1.60
2008,10,10,07,17,1.60
2008,10,10,07,18,1.60
2008,10,10,07,19,1.60
2008,10,10,07,20,1.60
2008,10,10,07,21,1.60
2008,10,10,07,22,1.60
2008,10,10,07,23,1.60
2008,10,10,07,24,1.60
2008,10,10,07,25,1.60
2008,10,10,07,26,1.50
2008,10,10,07,27,1.50
2008,10,10,07,28,1.50
2008,10,10,07,29,1.50
2008,10,10,07,30,1.50
2008,10,10,07,31,1.50
2008,10,10,07,32,1.50
2008,10,10,07,33,1.60
2008,10,10,07,34,1.60
2008,10,10,07,35,1.60
2008,10,10,07,36,1.60
2008,10,10,07,37,1.60
2008,10,10,07,38,1.60
2008,10,10,07,39,1.60
2008,10,10,07,40,1.70
2008,10,10,07,41,1.70
2008,10,10,07,42,1.70
2008,10,10,07,43,1.70
2008,10,10,07,44,1.70
2008,10,10,07,45,1.70
2008,10,10,07,46,1.80
2008,10,10,07,47,1.80
2008,10,10,07,48,1.80
2008,10,10,07,49,1.80
2008,10,10,07,50,1.80
2008,10,10,07,51,1.80
2008,10,10,07,52,1.80
2008,10,10,07,53,1.80
2008,10,10,07,54,1.80
2008,10,10,07,55,1.80
2008,10,10,07,56,1.80
2008,10,10,07,57,1.80
2008,10,10,07,58,1.80
2008,10,10,07,59,1.80
2008,10,10,08,00,1.90
2008,10,10,08,01,1.90
2008,10,10,08,02,1.90
2008,10,10,08,03,1.90
2008,10,10,08,04,2.00
2008,10,10,08,05,2.00
2008,10,10,08,06,2.00
2008,10,10,08,07,2.10
2008,10,10,08,08,2.20
2008,10,10,08,09,2.20
2008,10,10,08,10,2.30
2008,10,10,08,11,2.30
2008,10,10,08,12,2.30
2008,10,10,08,13,2.30
2008,10,10,08,14,2.30
2008,10,10,08,15,2.30
2008,10,10,08,16,2.30
2008,10,10,08,17,2.30
2008,10,10,08,18,2.30
2008,10,10,08,19,2.30
2008,10,10,08,20,2.40
2008,10,10,08,21,2.40
2008,10,10,08,22,2.40
2008,10,10,08,23,2.40
2008,10,10,08,24,2.40
2008,10,10,08,25,2.40
2008,10,10,08,26,2.40
2008,10,10,08,27,2.40
2008,10,10,08,28,2.40
2008,10,10,08,29,2.40
2008,10,10,08,30,2.40
2008,10,10,08,31,2.40
2008,10,10,08,32,2.40
2008,10,10,08,33,2.50
2008,10,10,08,34,2.50
2008,10,10,08,35,2.60
2008,10,10,08,36,2.60
2008,10,10,08,37,2.70
2008,10,10,08,38,2.70
2008,10,10,08,39,2.70
2008,10,10,08,40,2.70
2008,10,10,08,41,2.70
2008,10,10,08,42,2.70
2008,10,10,08,43,2.70
2008,10,10,08,44,2.80
2008,10,10,08,45,2.80
2008,10,10,08,46,2.90
2008,10,10,08,47,3.00
2008,10,10,08,48,3.10
2008,10,10,08,49,3.10
2008,10,10,08,50,3.10
2008,10,10,08,51,3.20
2008,10,10,08,52,3.20
2008,10,10,08,53,3.30
2008,10,10,08,54,3.30
2008,10,10,08,55,3.30
2008,10,10,08,56,3.40
2008,10,10,08,57,3.50
2008,10,10,08,58,3.60
2008,10,10,08,59,3.60
2008,10,10,09,00,3.70
2008,10,10,09,01,3.80
2008,10,10,09,02,3.80
2008,10,10,09,03,3.90
2008,10,10,09,04,3.90
2008,10,10,09,05,3.90
2008,10,10,09,06,4.00
2008,10,10,09,07,4.10
2008,10,10,09,08,4.10
2008,10,10,09,09,4.10
2008,10,10,09,10,4.20
2008,10,10,09,11,4.20
2008,10,10,09,12,4.20
2008,10,10,09,13,4.30
2008,10,10,09,14,4.30
2008,10,10,09,15,4.30
2008,10,10,09,16,4.30
2008,10,10,09,17,4.40
2008,10,10,09,18,4.50
2008,10,10,09,19,4.50
2008,10,10,09,20,4.60
2008,10,10,09,21,4.60
2008,10,10,09,22,4.70
2008,10,10,09,23,4.80
2008,10,10,09,24,4.90
2008,10,10,09,25,5.00
2008,10,10,09,26,5.00
2008,10,10,09,27,5.10
2008,10,10,09,28,5.20
2008,10,10,09,29,5.30
2008,10,10,09,30,5.40
2008,10,10,09,31,5.40
2008,10,10,09,32,5.50
2008,10,10,09,33,5.60
2008,10,10,09,34,5.70
2008,10,10,09,35,5.70
2008,10,10,09,36,5.80
2008,10,10,09,37,5.90
2008,10,10,09,38,5.90
2008,10,10,09,39,6.00
2008,10,10,09,40,6.10
2008,10,10,09,41,6.10
2008,10,10,09,42,6.20
2008,10,10,09,43,6.20
2008,10,10,09,44,6.30
2008,10,10,09,45,6.30
2008,10,10,09,46,6.40
2008,10,10,09,47,6.50
2008,10,10,09,48,6.50
2008,10,10,09,49,6.70
2008,10,10,09,50,6.70
2008,10,10,09,51,6.80
2008,10,10,09,52,6.90
2008,10,10,09,53,6.90
2008,10,10,09,54,7.00
2008,10,10,09,55,7.10
2008,10,10,09,56,7.20
2008,10,10,09,57,7.20
2008,10,10,09,58,7.30
2008,10,10,09,59,7.30
2008,10,10,10,00,7.40
2008,10,10,10,01,7.40
2008,10,10,10,02,7.40
2008,10,10,10,03,7.40
2008,10,10,10,04,7.50
2008,10,10,10,05,7.50
2008,10,10,10,06,7.60
2008,10,10,10,07,7.60
2008,10,10,10,08,7.70
2008,10,10,10,09,7.80
2008,10,10,10,10,7.90
2008,10,10,10,11,8.00
2008,10,10,10,12,8.00
2008,10,10,10,13,8.10
2008,10,10,10,14,8.20
2008,10,10,10,15,8.20
2008,10,10,10,16,8.30
2008,10,10,10,17,8.40
2008,10,10,10,18,8.40
2008,10,10,10,19,8.50
2008,10,10,10,20,8.60
2008,10,10,10,21,8.60
2008,10,10,10,22,8.70
2008,10,10,10,23,8.80
2008,10,10,10,24,8.90
2008,10,10,10,25,9.00
2008,10,10,10,26,9.10
2008,10,10,10,27,9.20
2008,10,10,10,28,9.30
2008,10,10,10,29,9.30
2008,10,10,10,30,9.30
2008,10,10,10,31,9.40
2008,10,10,10,32,9.40
2008,10,10,10,33,9.50
2008,10,10,10,34,9.50
2008,10,10,10,35,9.60
2008,10,10,10,36,9.60
2008,10,10,10,37,9.70
2008,10,10,10,38,9.70
2008,10,10,10,39,9.80
2008,10,10,10,40,9.80
2008,10,10,10,41,9.90
2008,10,10,10,42,9.90
2008,10,10,10,43,10.00
2008,10,10,10,44,10.10
2008,10,10,10,45,10.10
2008,10,10,10,46,10.20
2008,10,10,10,47,10.20
2008,10,10,10,48,10.30
2008,10,10,10,49,10.30
2008,10,10,10,50,10.30
2008,10,10,10,51,10.30
2008,10,10,10,52,10.40
2008,10,10,10,53,10.40
2008,10,10,10,54,10.40
2008,10,10,10,55,10.40
2008,10,10,10,56,10.50
2008,10,10,10,57,10.50
2008,10,10,10,58,10.60
2008,10,10,10,59,10.60
2008,10,10,11,00,10.60
2008,10,10,11,01,10.60
2008,10,10,11,02,10.70
2008,10,10,11,03,10.70
2008,10,10,11,04,10.70
2008,10,10,11,05,10.70
2008,10,10,11,06,10.80
2008,10,10,11,07,10.80
2008,10,10,11,08,10.80
2008,10,10,11,09,10.80
2008,10,10,11,10,10.80
2008,10,10,11,11,10.90
2008,10,10,11,12,10.90
2008,10,10,11,13,10.90
2008,10,10,11,14,10.90
2008,10,10,11,15,10.90
2008,10,10,11,16,10.90
2008,10,10,11,17,10.90
2008,10,10,11,18,10.90
2008,10,10,11,19,10.90
2008,10,10,11,20,10.90
2008,10,10,11,21,10.90
2008,10,10,11,22,11.00
2008,10,10,11,23,11.00
2008,10,10,11,24,11.00
2008,10,10,11,25,11.10
2008,10,10,11,26,11.10
2008,10,10,11,27,11.10
2008,10,10,11,28,11.10
2008,10,10,11,29,11.10
2008,10,10,11,30,11.10
2008,10,10,11,31,11.10
2008,10,10,11,32,11.10
2008,10,10,11,33,11.20
2008,10,10,11,34,11.20
2008,10,10,11,35,11.20
2008,10,10,11,36,11.20
2008,10,10,11,37,11.30
2008,10,10,11,38,11.30
2008,10,10,11,39,11.40
2008,10,10,11,40,11.50
2008,10,10,11,41,11.60
2008,10,10,11,42,11.60
2008,10,10,11,43,11.60
2008,10,10,11,44,11.60
2008,10,10,11,45,11.60
2008,10,10,11,46,11.70
2008,10,10,11,47,11.70
2008,10,10,11,48,11.80
2008,10,10,11,49,11.80
2008,10,10,11,50,11.90
2008,10,10,11,51,11.90
2008,10,10,11,52,11.90
2008,10,10,11,53,12.00
2008,10,10,11,54,12.00
2008,10,10,11,55,12.10
2008,10,10,11,56,12.10
2008,10,10,11,57,12.10
2008,10,10,11,58,12.10
2008,10,10,11,59,12.10
2008,10,10,12,00,12.10
2008,10,10,12,01,12.10
2008,10,10,12,02,12.10
2008,10,10,12,03,12.10
2008,10,10,12,04,12.10
2008,10,10,12,05,12.10
2008,10,10,12,06,12.10
2008,10,10,12,07,12.10
2008,10,10,12,08,12.10
2008,10,10,12,09,12.10
2008,10,10,12,10,12.10
2008,10,10,12,11,12.10
2008,10,10,12,12,12.10
2008,10,10,12,13,12.10
2008,10,10,12,14,12.10
2008,10,10,12,15,12.20
2008,10,10,12,16,12.30
2008,10,10,12,17,12.20
2008,10,10,12,18,12.20
2008,10,10,12,19,12.20
2008,10,10,12,20,12.10
2008,10,10,12,21,12.10
2008,10,10,12,22,12.10
2008,10,10,12,23,12.20
2008,10,10,12,24,12.20
2008,10,10,12,25,12.30
2008,10,10,12,26,12.40
2008,10,10,12,27,12.50
2008,10,10,12,28,12.60
2008,10,10,12,29,12.70
2008,10,10,12,30,12.80
2008,10,10,12,31,12.80
2008,10,10,12,32,12.80
2008,10,10,12,33,12.80
2008,10,10,12,34,12.80
2008,10,10,12,35,12.80
2008,10,10,12,36,12.80
2008,10,10,12,37,12.80
2008,10,10,12,38,12.80
2008,10,10,12,39,12.70
2008,10,10,12,40,12.70
2008,10,10,12,41,12.70
2008,10,10,12,42,12.70
2008,10,10,12,43,12.70
2008,10,10,12,44,12.70
2008,10,10,12,45,12.70
2008,10,10,12,46,12.70
2008,10,10,12,47,12.70
2008,10,10,12,48,12.70
2008,10,10,12,49,12.70
2008,10,10,12,50,12.80
2008,10,10,12,51,12.80
2008,10,10,12,52,12.80
2008,10,10,12,53,12.80
2008,10,10,12,54,12.80
2008,10,10,12,55,12.80
2008,10,10,12,56,12.90
2008,10,10,12,57,12.90
2008,10,10,12,58,12.90
2008,10,10,12,59,13.00
2008,10,10,13,00,13.00
2008,10,10,13,01,13.10
2008,10,10,13,02,13.20
2008,10,10,13,03,13.30
2008,10,10,13,04,13.50
2008,10,10,13,05,13.70
2008,10,10,13,06,13.80
2008,10,10,13,07,13.80
2008,10,10,13,08,13.80
2008,10,10,13,09,13.70
2008,10,10,13,10,13.70
2008,10,10,13,11,13.70
2008,10,10,13,12,13.70
2008,10,10,13,13,13.70
2008,10,10,13,14,13.70
2008,10,10,13,15,13.70
2008,10,10,13,16,13.70
2008,10,10,13,17,13.60
2008,10,10,13,18,13.60
2008,10,10,13,19,13.60
2008,10,10,13,20,13.70
2008,10,10,13,21,13.70
2008,10,10,13,22,13.60
2008,10,10,13,23,13.50
2008,10,10,13,24,13.50
2008,10,10,13,25,13.40
2008,10,10,13,26,13.40
2008,10,10,13,27,13.50
2008,10,10,13,28,13.60
2008,10,10,13,29,13.60
2008,10,10,13,30,13.70
2008,10,10,13,31,13.70
2008,10,10,13,32,13.80
2008,10,10,13,33,13.80
2008,10,10,13,34,13.90
2008,10,10,13,35,14.00
2008,10,10,13,36,14.10
2008,10,10,13,37,14.10
2008,10,10,13,38,14.20
2008,10,10,13,39,14.20
2008,10,10,13,40,14.20
2008,10,10,13,41,14.20
2008,10,10,13,42,14.20
2008,10,10,13,43,14.10
2008,10,10,13,44,14.00
2008,10,10,13,45,14.00
2008,10,10,13,46,13.90
2008,10,10,13,47,13.90
2008,10,10,13,48,13.90
2008,10,10,13,49,13.90
2008,10,10,13,50,14.00
2008,10,10,13,51,14.10
2008,10,10,13,52,14.20
2008,10,10,13,53,14.30
2008,10,10,13,54,14.40
2008,10,10,13,55,14.40
2008,10,10,13,56,14.30
2008,10,10,13,57,14.20
2008,10,10,13,58,14.10
2008,10,10,13,59,13.90
2008,10,10,14,00,13.70
2008,10,10,14,01,13.70
2008,10,10,14,02,13.70
2008,10,10,14,03,13.70
2008,10,10,14,04,13.70
2008,10,10,14,05,13.70
2008,10,10,14,06,13.70
2008,10,10,14,07,13.70
2008,10,10,14,08,13.70
2008,10,10,14,09,13.70
2008,10,10,14,10,13.70
2008,10,10,14,11,13.70
2008,10,10,14,12,13.70
2008,10,10,14,13,13.80
2008,10,10,14,14,13.90
2008,10,10,14,15,13.90
2008,10,10,14,16,14.00
2008,10,10,14,17,14.00
2008,10,10,14,18,14.00
2008,10,10,14,19,14.00
2008,10,10,14,20,14.00
2008,10,10,14,21,13.90
2008,10,10,14,22,13.80
2008,10,10,14,23,13.80
2008,10,10,14,24,13.90
2008,10,10,14,25,14.00
2008,10,10,14,26,14.10
2008,10,10,14,27,14.10
2008,10,10,14,28,14.10
2008,10,10,14,29,14.10
2008,10,10,14,30,14.10
2008,10,10,14,31,14.20
2008,10,10,14,32,14.20
2008,10,10,14,33,14.20
2008,10,10,14,34,14.30
2008,10,10,14,35,14.30
2008,10,10,14,36,14.20
2008,10,10,14,37,14.20
2008,10,10,14,38,14.20
2008,10,10,14,39,14.20
2008,10,10,14,40,14.30
2008,10,10,14,41,14.40
2008,10,10,14,42,14.40
2008,10,10,14,43,14.50
2008,10,10,14,44,14.50
2008,10,10,14,45,14.70
2008,10,10,14,46,14.80
2008,10,10,14,47,14.90
2008,10,10,14,48,15.00
2008,10,10,14,49,15.00
2008,10,10,14,50,15.00
2008,10,10,14,51,15.00
2008,10,10,14,52,15.00
2008,10,10,14,53,15.00
2008,10,10,14,54,15.00
2008,10,10,14,55,14.90
2008,10,10,14,56,14.90
2008,10,10,14,57,14.90
2008,10,10,14,58,14.90
2008,10,10,14,59,14.90
2008,10,10,15,00,14.80
2008,10,10,15,01,14.80
2008,10,10,15,02,14.80
2008,10,10,15,03,14.80
2008,10,10,15,04,14.80
2008,10,10,15,05,14.60
2008,10,10,15,06,14.50
2008,10,10,15,07,14.40
2008,10,10,15,08,14.50
2008,10,10,15,09,14.60
2008,10,10,15,10,14.70
2008,10,10,15,11,14.60
2008,10,10,15,12,14.50
2008,10,10,15,13,14.40
2008,10,10,15,14,14.30
2008,10,10,15,15,14.30
2008,10,10,15,16,14.30
2008,10,10,15,17,14.40
2008,10,10,15,18,14.50
2008,10,10,15,19,14.60
2008,10,10,15,20,14.60
2008,10,10,15,21,14.60
2008,10,10,15,22,14.50
2008,10,10,15,23,14.50
2008,10,10,15,24,14.50
2008,10,10,15,25,14.50
2008,10,10,15,26,14.60
2008,10,10,15,27,14.70
2008,10,10,15,28,14.70
2008,10,10,15,29,14.70
2008,10,10,15,30,14.60
2008,10,10,15,31,14.50
2008,10,10,15,32,14.50
2008,10,10,15,33,14.40
2008,10,10,15,34,14.40
2008,10,10,15,35,14.40
2008,10,10,15,36,14.40
2008,10,10,15,37,14.30
2008,10,10,15,38,14.30
2008,10,10,15,39,14.30
2008,10,10,15,40,14.30
2008,10,10,15,41,14.30
2008,10,10,15,42,14.20
2008,10,10,15,43,14.20
2008,10,10,15,44,14.20
2008,10,10,15,45,14.20
2008,10,10,15,46,14.30
2008,10,10,15,47,14.30
2008,10,10,15,48,14.40
2008,10,10,15,49,14.40
2008,10,10,15,50,14.40
2008,10,10,15,51,14.40
2008,10,10,15,52,14.50
2008,10,10,15,53,14.50
2008,10,10,15,54,14.60
2008,10,10,15,55,14.60
2008,10,10,15,56,14.60
2008,10,10,15,57,14.60
2008,10,10,15,58,14.60
2008,10,10,15,59,14.50
2008,10,10,16,00,14.40
2008,10,10,16,01,14.30
2008,10,10,16,02,14.30
2008,10,10,16,03,14.30
2008,10,10,16,04,14.20
2008,10,10,16,05,14.20
2008,10,10,16,06,14.20
2008,10,10,16,07,14.20
2008,10,10,16,08,14.30
2008,10,10,16,09,14.30
2008,10,10,16,10,14.20
2008,10,10,16,11,14.20
2008,10,10,16,12,14.10
2008,10,10,16,13,14.10
2008,10,10,16,14,14.20
2008,10,10,16,15,14.30
2008,10,10,16,16,14.30
2008,10,10,16,17,14.30
2008,10,10,16,18,14.20
2008,10,10,16,19,14.30
2008,10,10,16,20,14.30
2008,10,10,16,21,14.30
2008,10,10,16,22,14.30
2008,10,10,16,23,14.30
2008,10,10,16,24,14.30
2008,10,10,16,25,14.20
2008,10,10,16,26,14.20
2008,10,10,16,27,14.10
2008,10,10,16,28,14.10
2008,10,10,16,29,14.00
2008,10,10,16,30,14.10
2008,10,10,16,31,14.20
2008,10,10,16,32,14.20
2008,10,10,16,33,14.20
2008,10,10,16,34,14.30
2008,10,10,16,35,14.30
2008,10,10,16,36,14.40
2008,10,10,16,37,14.40
2008,10,10,16,38,14.40
2008,10,10,16,39,14.30
2008,10,10,16,40,14.30
2008,10,10,16,41,14.30
2008,10,10,16,42,14.20
2008,10,10,16,43,14.10
2008,10,10,16,44,14.10
2008,10,10,16,45,14.10
2008,10,10,16,46,14.10
2008,10,10,16,47,14.10
2008,10,10,16,48,14.10
2008,10,10,16,49,14.00
2008,10,10,16,50,14.00
2008,10,10,16,51,13.90
2008,10,10,16,52,13.80
2008,10,10,16,53,13.80
2008,10,10,16,54,13.80
2008,10,10,16,55,13.80
2008,10,10,16,56,13.80
2008,10,10,16,57,13.80
2008,10,10,16,58,13.80
2008,10,10,16,59,13.80
2008,10,10,17,00,13.80
2008,10,10,17,01,13.90
2008,10,10,17,02,13.90
2008,10,10,17,03,14.00
2008,10,10,17,04,13.90
2008,10,10,17,05,13.90
2008,10,10,17,06,13.90
2008,10,10,17,07,13.80
2008,10,10,17,08,13.80
2008,10,10,17,09,13.70
2008,10,10,17,10,13.70
2008,10,10,17,11,13.70
2008,10,10,17,12,13.80
2008,10,10,17,13,13.80
2008,10,10,17,14,13.90
2008,10,10,17,15,13.90
2008,10,10,17,16,13.90
2008,10,10,17,17,13.90
2008,10,10,17,18,13.90
2008,10,10,17,19,13.90
2008,10,10,17,20,13.80
2008,10,10,17,21,13.80
2008,10,10,17,22,13.80
2008,10,10,17,23,13.80
2008,10,10,17,24,13.80
2008,10,10,17,25,13.80
2008,10,10,17,26,13.80
2008,10,10,17,27,13.90
2008,10,10,17,28,13.90
2008,10,10,17,29,14.00
2008,10,10,17,30,14.00
2008,10,10,17,31,14.10
2008,10,10,17,32,14.10
2008,10,10,17,33,14.00
2008,10,10,17,34,14.00
2008,10,10,17,35,13.90
2008,10,10,17,36,13.80
2008,10,10,17,37,13.80
2008,10,10,17,38,13.70
2008,10,10,17,39,13.70
2008,10,10,17,40,13.70
2008,10,10,17,41,13.60
2008,10,10,17,42,13.60
2008,10,10,17,43,13.60
2008,10,10,17,44,13.50
2008,10,10,17,45,13.50
2008,10,10,17,46,13.50
2008,10,10,17,47,13.50